Location: Mohawk View
(42.7837°N, 73.7885°W)
Time: 06:35:47
(UTC+00:00)

Terra - Pass Details

Date: 17 June 2021
Orbit: 701 x 703 km, 98.2° (Epoch: 27 July)

Event Time Altitude Azimuth Distance (km) Brightness Sun altitude
Exits shadow 02:02:27 17° 120° (ESE) 1,754 3.3 -12.7°
Maximum altitude 02:05:23 32° 68° (ENE) 1,213 2.9 -13.0°
Drops below altitude 10° 02:09:35 10° 6° (N) 2,180 5.0 -13.5°
Sets 02:12:02 0° 357° (N) 3,103 6.1 -13.8°
